Regional Weather Roundup
Issued by NWS Boston, MA

Current Version | Previous Version | Text Only | Print | Product List | Glossary Off
Versions: 1 2 3 4 5 6 7 8 9 10 11 12 13 14 15 16 17 18 19 20 21 22 23 24 25 26 27
000 ASUS41 KBOX 201810 RWRBOX REGIONAL WEATHER ROUNDUP NATIONAL WEATHER SERVICE TAUNTON MA 200 PM EDT SUN AUG 20 2017 NOTE: "FAIR" INDICATES FEW OR NO CLOUDS BELOW 12,000 FEET WITH NO SIGNIFICANT WEATHER AND/OR OBSTRUCTIONS TO VISIBILITY. MAZALL-201900- EASTERN MASSACHUSETTS CITY SKY/WX TMP DP RH WIND PRES REMARKS BOSTON MOSUNNY 83 58 42 W13G18 29.96R 6HR MIN TEMP: 74; 6HR MAX TEMP: 85; BEVERLY PTSUNNY 83 62 49 NW9G18 29.96R LAWRENCE SUNNY 83 59 44 W13G20 29.99R BEDFORD PTSUNNY 83 56 39 W12G21 29.97R BLUE HILL N/A 83 58 42 W15G21 29.99R NORWOOD PTSUNNY 82 59 45 NW17G23 29.97R MARSHFIELD PTSUNNY 82 63 51 VRB7 29.96R PLYMOUTH SUNNY 84 59 42 W12 29.97R TAUNTON PTSUNNY 85 59 41 W9 29.97R NEW BEDFORD PTSUNNY 81 60 48 NW8 29.97R $$ MAZALL-201900- CAPE COD AND THE ISLANDS CITY SKY/WX TMP DP RH WIND PRES REMARKS FALMOUTH SUNNY 82 63 51 W13 29.98R HYANNIS MOSUNNY 81 62 52 N9 29.96R CHATHAM SUNNY 82 63 52 VRB5 29.98R PROVINCETOWN SUNNY 79 63 57 NW9 29.98R NANTUCKET SUNNY 79 66 64 W16 29.98R MARTHAS VNYRD SUNNY 81 63 54 W13 29.98R $$ MAZALL-201900- CENTRAL AND WESTERN MASSACHUSETTS CITY SKY/WX TMP DP RH WIND PRES REMARKS WORCESTER PTSUNNY 78 55 44 W8G23 30.03R 6HR MIN TEMP: 67; 6HR MAX TEMP: 78; FITCHBURG MOSUNNY 83 56 39 NW15 30.01R ORANGE MOSUNNY 78 55 44 NW8G20 30.02R SPRINGFIELD MOSUNNY 81 55 40 NW12 30.01R WESTFIELD PTSUNNY 82 57 42 NW12G18 30.02S NORTH ADAMS MOSUNNY 75 56 51 VRB7G18 30.05S PITTSFIELD MOSUNNY 74 57 55 W16G22 30.07S $$ RIZALL-201900- RHODE ISLAND CITY SKY/WX TMP DP RH WIND PRES REMARKS PROVIDENCE MOSUNNY 83 60 45 NW13G20 30.00R 6HR MIN TEMP: 73; 6HR MAX TEMP: 85; NEWPORT MOSUNNY 82 64 54 NW8 29.99R BLOCK ISLAND SUNNY 77 65 66 W13G22 30.02S WESTERLY MOSUNNY 84 60 44 NW8 30.01S $$ CTZALL-201900- CONNECTICUT CITY SKY/WX TMP DP RH WIND PRES REMARKS BRADLEY INTL MOSUNNY 82 58 43 NW13 30.03R 6HR MIN TEMP: 71; 6HR MAX TEMP: 82; HARTFORD MOSUNNY 82 59 45 N12 30.02S BRIDGEPORT MOSUNNY 82 59 45 NW16 30.04S DANBURY MOSUNNY 78 58 49 NW9 30.08S GROTON PTSUNNY 82 60 47 NW10 30.01R NEW HAVEN MOSUNNY 80 59 48 NW8 30.04S CHESTER FAIR 79 57 47 VRB6G18 30.04S MERIDEN MOSUNNY 80 59 48 VRB7 30.04R WILLIMANTIC MOSUNNY 81 59 47 W12G20 30.02R OXFORD MOSUNNY 76 61 59 NW7 30.08R $$ MEZ002-015-021-024-NHZ003-005-008-011-012-014-VTZ005-008-201900- NORTHERN NEW ENGLAND CITY SKY/WX TMP DP RH WIND PRES REMARKS PORTLAND ME MOSUNNY 83 56 39 NW15G21 29.93R 6HR MIN TEMP: 70; 6HR MAX TEMP: 84; BANGOR ME PTSUNNY 81 61 50 W8 29.88R CONCORD NH MOSUNNY 80 54 40 NW14G22 29.99R MANCHESTER NH PTSUNNY 80 53 39 NW12G23 29.97R NASHUA NH MOSUNNY 80 58 46 W14G23 29.99R PORTSMOUTH NH MOSUNNY 81 58 45 W15 29.94R JAFFREY NH PTSUNNY 76 57 51 MISG 30.04R KEENE NH N/A N/A N/A N/A MISG N/A BURLINGTON VT MOSUNNY 79 56 45 NW9 30.02R MT. WASHINGTON FOG 45 45 100 NW51G58 N/A VSB 1/16 $$ NYZ052-076-201900- EASTERN NEW YORK CITY SKY/WX TMP DP RH WIND PRES REMARKS ALBANY MOSUNNY 79 59 50 NW8 30.07R 6HR MIN TEMP: 68; 6HR MAX TEMP: 79; NEW YORK CITY PTSUNNY 81 60 48 NW16G23 30.06R 6HR MIN TEMP: 72; 6HR MAX TEMP: 81; $$ ANZALL-201900- MARINE OBSERVATIONS STATION/POSITION TIME TEMP WIND PRES VSBY WAVE AIR SEA DIR/SP/G HT/PER (UTC) (F) (DEG/KT/KT) (MB) (MI) (FT/S) BOSTON BUOY 1750 72 67 260/ 4/ 4 1014.5R 1/ 7 BUZZARDS BAY 1700 71 240/ 14/ 15 1015.5R NANTUCKET SOUND 1750 72 72 230/ 10/ 12 1015.0R 1/ 3 MASS BAY-STELLWA 1704 73 67 290/ 4/ 4 1013.4R 2/ 8 ISLE OF SHOALS 1700 75 310/ 13/ 15 1013.5R S OF BLOCK IS NOT AVBL $$ ......................KEY......................... SKY/WX - SKY CONDITION/PRESENT WEATHER TMP - TEMPERATURE IN FAHRENHEIT DWPT - DEWPOINT IN FAHRENHEIT RH - RELATIVE HUMIDITY IN PERCENT WIND - DIRECTION AND SPEED IN MPH PRES - MEAN SEA LEVEL PRESSURE IN INCHES OF HG WCI - WIND CHILL INDEX VSB - VISIBILITY IN MILES HX - HEAT INDEX TC - TEMPERATURE IN CELSIUS VRB - VARIABLE WIND DIRECTION N/A - NOT AVAILABLE

USA.gov is the U.S. government's official web portal to all federal, state and local government web resources and services.